Regional Weather Roundup
Issued by NWS

Home | Current Version | Previous Version | Text Only | Print | Product List | Glossary Off
Versions: 1 2 3 4 5 6 7 8 9 10 11 12 13 14 15 16 17 18 19 20 21 22 23 24 25 26 27

000
ASUS45 KCYS 190210
RWRWY

WYOMING REGIONAL WEATHER ROUNDUP
NATIONAL WEATHER SERVICE CHEYENNE WY
700 PM MST SAT FEB 18 2017

NOTE:  "FAIR" INDICATES FEW OR NO CLOUDS BELOW 12,000 FEET
WITH NO SIGNIFICANT WEATHER AND/OR OBSTRUCTIONS TO VISIBILITY.

WYZ001-190300-
YELLOWSTONE NATIONAL PARK

CITY           SKY/WX    TMP DP  RH WIND       PRES   REMARKS
LK YELLOWSTONE   N/A     31  31 100 CALM      29.65R
W YELLOWSTONE  NOT AVBL

$$
WYZ002>013-054>058-071-098>099-190300-
NORTHERN WYOMING

CITY           SKY/WX    TMP DP  RH WIND       PRES   REMARKS
JACKSON        CLOUDY    34  34 100 SW14      29.64S WCI  24
CODY           NOT AVBL
GREYBULL       FAIR      44  33  65 E8        29.54S
WORLAND        FAIR      42  34  73 S13       29.55S
SHERIDAN       FAIR      38  31  76 VRB6      29.55R WCI  33
BUFFALO        FAIR      51  28  41 VRB5      29.57S
GILLETTE       MOCLDY    53  32  44 S22       29.58R
HULETT         FAIR      50  32  50 SW6       29.61S
NEWCASTLE      FAIR      50  30  46 CALM      29.64R

$$
WYZ014>020-022>026-101>103-190300-
CENTRAL WYOMING

CITY           SKY/WX    TMP DP  RH WIND       PRES   REMARKS
BIG PINEY      MOCLDY    31  30  96 CALM      29.71R
PINEDALE       CLOUDY    32  32 100 E3        29.71S
DUBOIS         MOCLDY    34  28  80 W12       29.62R WCI  25
LANDER         FAIR      41  31  67 SE6       29.59S
RIVERTON       FAIR      42  31  64 S16G29    29.61S
CASPER         FAIR      47  32  56 SW26G40   29.67S
DOUGLAS        CLOUDY    50  29  44 SW6       29.68R

$$
WYZ021-027>030-104>119-190300-
SOUTHERN WYOMING

CITY           SKY/WX    TMP DP  RH WIND       PRES   REMARKS
EVANSTON       MOCLDY    34  28  79 E8        29.67S WCI  27
KEMMERER         N/A     32  32 100 N6        29.69S WCI  26
FORT BRIDGER   PTCLDY    34  34 100 CALM      29.71S
ROCK SPRINGS   CLOUDY    38  30  73 S9        29.69R WCI  31
DIXON            N/A     37  33  85 SE3       29.79R
RAWLINS        MOCLDY    38  31  76 S7        29.76R WCI  33
SARATOGA       FAIR      37  32  81 N5        29.76S WCI  34
LARAMIE        FAIR      37  27  67 NE9       29.73R WCI  30
CHEYENNE       FAIR      46  20  35 NW5       29.70S
TORRINGTON     FAIR      53  22  29 SE8       29.65R
PINE BLUFFS    FAIR      50  23  34 SE13      29.69R

$$




USA.gov is the U.S. government's official web portal to all federal, state and local government web resources and services.